CAPE
1 1 0 0 0 0 0 0 0 0 0 0 0 0 0 0 0 0 0 0 0 0 0 0 0 0 0 0 0 10 0 0 54 177 119 500 671 1182 703 945 883 680 622 440 501
1 1 1 1 0 0 0 0 0 0 0 0 0 0 0 0 0 0 0 0 0 0 0 0 0 0 0 0 0 0 0 0 0 158 40 432 587 976 667 771 858 658 540 524 528
0 0 0 1 0 0 0 0 0 0 0 0 0 0 0 0 0 0 0 0 0 0 0 0 0 0 0 0 0 0 0 0 0 0 136 428 518 597 767 782 799 602 545 584 702
0 0 0 0 0 1 2 0 0 0 0 0 0 0 0 0 0 0 0 0 0 0 0 0 0 0 0 0 0 0 0 0 0 0 234 344 302 553 841 826 831 675 580 653 694
0 0 0 0 1 2 1 0 1 0 0 0 0 0 0 0 0 0 0 0 0 0 0 0 0 0 0 0 0 0 0 0 0 0 151 287 213 240 819 922 832 604 607 651 659
0 0 0 0 0 1 2 1 0 0 0 0 0 0 0 0 0 0 0 0 0 0 0 0 0 0 0 0 0 0 0 0 0 0 7 69 208 348 776 767 708 591 519 588 668
0 0 0 0 0 1 1 0 0 0 0 0 0 0 0 0 0 0 0 0 0 0 0 0 0 0 0 0 0 0 0 0 0 0 0 0 12 153 683 729 706 568 630 704 712
0 0 0 0 0 0 0 0 0 0 0 0 0 0 0 0 0 0 0 0 0 0 0 0 0 0 0 0 0 0 0 0 0 0 0 0 0 154 813 801 733 552 454 481 643
0 0 0 0 0 0 0 0 0 0 0 0 0 0 0 0 0 0 0 0 0 0 0 0 0 0 0 0 0 0 0 0 0 0 0 0 2 175 940 887 798 630 524 546 392
0 0 0 0 0 0 0 0 0 0 0 0 0 0 0 0 0 0 0 0 0 0 0 0 0 0 0 0 0 0 0 0 0 0 0 0 13 339 890 953 880 766 650 464 448
0 0 0 0 0 0 0 0 0 0 0 0 0 0 0 0 0 0 0 0 0 0 0 0 0 0 0 0 0 0 0 0 0 0 0 0 37 94 556 1070 987 919 856 516 72
0 0 0 0 0 0 0 0 0 0 0 0 0 0 0 0 0 0 0 0 0 0 0 0 0 0 0 0 0 0 0 0 0 1 71 32 93 283 357 865 1022 1000 900 860 399
0 0 0 0 0 0 0 0 0 0 0 0 0 0 0 0 0 0 0 0 0 0 0 0 0 0 0 0 0 0 0 0 0 0 3 8 22 62 28 57 508 717 716 697 145
0 0 0 0 0 0 0 0 0 0 0 0 0 0 0 0 0 0 0 0 0 0 0 0 0 0 0 0 0 0 0 0 0 0 0 0 0 0 0 19 184 184 217 676 384
0 0 0 1 0 0 0 0 0 0 0 0 0 0 0 0 0 0 0 0 0 0 0 0 0 0 0 0 0 0 0 0 0 0 0 0 0 0 0 0 1 9 55 181 314
0 0 0 0 0 0 0 0 0 0 0 0 0 0 0 0 0 0 0 0 0 0 0 0 0 0 0 0 0 0 0 0 0 0 0 0 0 0 0 0 0 0 36 159 594
0 0 0 0 0 0 0 0 0 0 0 0 0 0 0 0 0 0 0 0 0 0 0 0 0 0 0 0 0 0 0 0 0 0 0 0 0 0 0 0 0 6 65 301 944
0 0 0 0 0 0 0 0 0 0 0 0 0 0 0 0 0 0 0 0 0 0 0 0 0 0 0 0 0 0 0 0 0 0 0 0 0 0 0 0 2 13 85 663 961
0 0 0 0 0 0 0 0 0 0 0 0 0 0 0 0 0 0 0 0 0 0 0 0 0 0 0 0 0 0 0 0 0 0 0 0 0 0 0 0 0 3 87 788 991
0 0 0 0 0 0 0 0 0 0 0 0 0 0 0 0 0 0 0 0 0 0 0 0 0 0 0 0 0 0 0 0 0 0 0 0 0 0 0 0 21 0 143 964 1072
0 0 0 0 0 0 0 0 0 0 0 0 0 0 0 0 0 0 0 0 0 0 0 0 0 0 0 0 0 0 0 0 0 0 0 0 0 2 0 13 19 16 334 1016 1049
0 0 0 0 0 0 0 0 0 0 0 0 0 0 0 0 0 0 0 0 0 0 0 0 0 0 0 0 0 0 0 0 0 0 0 0 1 0 11 4 0 3 223 1055 1141
0 0 0 0 0 0 0 0 0 0 0 0 0 0 0 0 0 0 0 0 0 0 0 0 0 0 0 0 2 8 0 0 0 0 0 2 4 0 20 13 12 39 138 728 1178
0 0 0 0 0 0 0 0 0 40 2 0 0 0 0 0 0 0 0 0 0 0 0 0 0 0 0 0 0 47 7 0 2 0 0 1 2 0 5 53 64 41 107 604 935
0 0 0 0 0 0 0 4 50 158 47 0 0 0 0 0 2 13 0 0 0 0 0 0 0 0 0 0 2 18 4 0 0 0 0 0 0 3 3 0 49 1 256 380 728
0 0 0 0 0 0 1 122 226 209 61 0 0 0 25 4 47 46 0 0 0 0 0 0 0 0 0 23 30 20 13 3 36 3 14 4 6 0 0 0 0 231 333 331 526
0 0 0 0 0 0 59 140 205 201 30 113 67 10 82 86 17 14 7 0 0 0 0 0 0 0 1 61 23 9 14 4 26 10 0 0 0 0 94 15 80 392 488 404 362
CIN
-0 -0 -0 -0 -0 -0 -0 -0 -0 -0 -0 -0 -0 -0 -0 -0 -0 -0 -0 -0 -0 -0 -0 -0 -0 -0 -22 -0 -0 -216 -0 -0 -74 -33 -28 -101 -83 -118 -149 -105 -114 -140 -130 -180 -237
-0 -0 -0 -0 -0 -0 -0 -0 -0 -0 -0 -0 -0 -0 -0 -0 -0 -0 -0 -0 -0 -0 -0 -0 -0 -0 -0 -0 -0 -0 -0 -0 -0 -47 -81 -77 -81 -110 -112 -103 -99 -167 -254 -264 -259
-0 -0 -0 -0 -0 -0 -0 -0 -0 -0 -0 -0 -0 -0 -0 -0 -0 -0 -0 -0 -0 -0 -0 -0 -0 -0 -0 -0 -0 -0 -0 -0 -0 -0 -62 -59 -103 -146 -113 -97 -93 -85 -245 -251 -206
-0 -0 -0 -0 -0 -0 -0 -0 -0 -0 -0 -0 -0 -0 -0 -0 -0 -0 -0 -0 -0 -0 -0 -0 -0 -0 -0 -0 -0 -0 -0 -0 -0 -0 -71 -66 -121 -120 -103 -80 -100 -195 -248 -252 -200
-0 -0 -0 -0 -0 -0 -0 -0 -0 -0 -0 -0 -0 -0 -0 -0 -0 -0 -0 -0 -0 -0 -0 -0 -0 -0 -0 -0 -0 -0 -0 -0 -0 -0 -58 -82 -69 -92 -98 -125 -155 -248 -273 -229 -188
-0 -0 -0 -0 -0 -0 -0 -0 -0 -0 -0 -0 -0 -0 -0 -0 -0 -0 -0 -0 -0 -0 -0 -0 -0 -0 -0 -0 -0 -0 -0 -0 -0 -0 -39 -73 -89 -81 -124 -192 -180 -250 -261 -267 -227
-0 -0 -0 -0 -0 -0 -0 -0 -0 -0 -0 -0 -0 -0 -0 -0 -0 -0 -0 -0 -0 -0 -0 -0 -0 -0 -0 -0 -0 -0 -0 -0 -0 -0 -0 -0 -78 -73 -143 -199 -200 -245 -265 -253 -231
-0 -0 -0 -0 -0 -0 -0 -0 -0 -0 -0 -0 -0 -0 -0 -0 -0 -0 -0 -0 -0 -0 -0 -0 -0 -0 -0 -0 -0 -0 -0 -0 -0 -0 -0 -0 -0 -81 -195 -187 -178 -228 -279 -269 -220
-0 -0 -0 -0 -0 -0 -0 -0 -0 -0 -0 -0 -0 -0 -0 -0 -0 -0 -0 -0 -0 -0 -0 -0 -0 -0 -0 -0 -0 -0 -0 -0 -0 -0 -0 -0 -21 -107 -228 -187 -181 -199 -196 -229 -229
-0 -0 -0 -0 -0 -0 -0 -0 -0 -0 -0 -0 -0 -0 -0 -0 -0 -0 -0 -0 -0 -0 -0 -0 -0 -0 -0 -0 -0 -0 -0 -0 -0 -0 -0 -0 -72 -183 -236 -185 -162 -180 -167 -192 -198
-0 -0 -0 -0 -0 -0 -0 -0 -0 -0 -0 -0 -0 -0 -0 -0 -0 -0 -0 -0 -0 -0 -0 -0 -0 -0 -0 -0 -0 -0 -0 -0 -0 -0 -0 -0 -117 -219 -221 -173 -159 -151 -145 -180 -243
-0 -0 -0 -0 -0 -0 -0 -0 -0 -0 -0 -0 -0 -0 -0 -0 -0 -0 -0 -0 -0 -0 -0 -0 -0 -0 -0 -0 -0 -0 -0 -0 -0 -45 -131 -156 -131 -204 -228 -185 -169 -149 -145 -135 -201
-0 -0 -0 -0 -0 -0 -0 -0 -0 -0 -0 -0 -0 -0 -0 -0 -0 -0 -0 -0 -0 -0 -0 -0 -0 -0 -0 -0 -0 -0 -0 -0 -0 -0 -98 -63 -149 -183 -251 -311 -250 -221 -200 -165 -215
-0 -0 -0 -0 -0 -0 -0 -0 -0 -0 -0 -0 -0 -0 -0 -0 -0 -0 -0 -0 -0 -0 -0 -0 -0 -0 -0 -0 -0 -0 -0 -0 -0 -0 -0 -0 -17 -0 -0 -207 -220 -261 -243 -135 -150
-0 -0 -0 -0 -0 -0 -0 -0 -0 -0 -0 -0 -0 -0 -0 -0 -0 -0 -0 -0 -0 -0 -0 -0 -0 -0 -0 -0 -0 -0 -0 -0 -0 -0 -0 -0 -0 -0 -0 -0 -167 -256 -229 -175 -185
-0 -0 -0 -0 -0 -0 -0 -0 -0 -0 -0 -0 -0 -0 -0 -0 -0 -0 -0 -0 -0 -0 -0 -0 -0 -0 -0 -0 -0 -0 -0 -0 -0 -0 -0 -0 -0 -0 -0 -0 -0 -0 -299 -224 -155
-0 -0 -0 -0 -0 -0 -0 -0 -0 -0 -0 -0 -0 -0 -0 -0 -0 -0 -0 -0 -0 -0 -0 -0 -0 -0 -0 -0 -0 -0 -0 -0 -0 -0 -0 -0 -0 -0 -0 -0 -0 -245 -240 -218 -166
-0 -0 -0 -0 -0 -0 -0 -0 -0 -0 -0 -0 -0 -0 -0 -0 -0 -0 -0 -0 -0 -0 -0 -0 -0 -0 -0 -0 -0 -0 -0 -0 -0 -0 -0 -0 -0 -0 -0 -0 -356 -333 -286 -219 -178
-0 -0 -0 -0 -0 -0 -0 -0 -0 -0 -0 -0 -0 -0 -0 -0 -0 -0 -0 -0 -0 -0 -0 -0 -0 -0 -0 -0 -0 -0 -0 -0 -0 -0 -0 -0 -0 -0 -0 -0 -30 -269 -258 -170 -175
-0 -0 -0 -0 -0 -0 -0 -0 -0 -0 -0 -0 -0 -0 -0 -0 -0 -0 -0 -0 -0 -0 -0 -0 -0 -0 -0 -0 -0 -0 -0 -0 -0 -0 -0 -0 -0 -0 -27 -44 -237 -6 -181 -177 -194
-0 -0 -0 -0 -0 -0 -0 -0 -0 -0 -0 -0 -0 -0 -0 -0 -0 -0 -0 -0 -0 -0 -0 -0 -0 -0 -0 -0 -0 -0 -0 -0 -0 -0 -0 -0 -0 -45 -0 -265 -199 -221 -208 -185 -187
-0 -0 -0 -0 -0 -0 -0 -0 -0 -0 -0 -0 -0 -0 -0 -0 -0 -0 -0 -0 -0 -0 -0 -0 -0 -0 -0 -0 -0 -0 -0 -0 -0 -0 -0 -0 -30 -0 -250 -302 -11 -249 -242 -221 -211
-0 -0 -0 -0 -0 -0 -0 -0 -0 -0 -0 -0 -0 -0 -0 -0 -0 -0 -0 -0 -0 -0 -0 -0 -0 -0 -0 -0 -15 -103 -0 -0 -0 -0 -0 -85 -77 -0 -228 -254 -367 -373 -322 -274 -241
-0 -0 -0 -0 -0 -0 -0 -0 -0 -316 -137 -0 -0 -0 -0 -0 -0 -0 -0 -0 -0 -0 -0 -0 -0 -0 -0 -0 -0 -49 -87 -0 -34 -0 -0 -62 -104 -0 -83 -198 -284 -384 -446 -385 -343
-0 -0 -0 -0 -0 -0 -0 -260 -295 -196 -238 -0 -0 -0 -0 -0 -40 -84 -0 -0 -0 -0 -0 -0 -0 -0 -0 -0 -47 -54 -59 -0 -0 -0 -0 -0 -0 -62 -151 -24 -226 -22 -482 -447 -387
-0 -0 -0 -0 -0 -0 -78 -174 -197 -189 -241 -0 -0 -0 -214 -17 -109 -113 -16 -0 -0 -0 -0 -0 -0 -0 -7 -136 -98 -64 -90 -105 -115 -174 -107 -127 -87 -3 -0 -0 -62 -364 -447 -418 -406
-0 -0 -0 -0 -0 -0 -136 -177 -194 -284 -255 -188 -178 -48 -152 -224 -289 -476 -627 -123 -0 -0 -0 -0 -0 -0 -20 -168 -105 -49 -91 -102 -113 -167 -0 -0 -0 -0 -170 -222 -250 -322 -357 -346 -386
Wind_Speed
23 24 24 25 25 26 26 26 26 26 26 25 25 25 25 25 24 19 24 18 8 7 11 12 15 17 17 15 15 16 15 15 16 19 18 20 19 20 18 22 20 20 20 18 23
25 25 25 26 27 27 27 27 26 26 26 26 25 25 24 24 23 25 24 23 11 10 12 14 14 17 16 16 17 17 14 15 16 17 18 19 18 19 20 18 19 22 24 23 23
26 26 27 27 27 28 28 27 27 26 26 26 25 25 24 23 21 11 14 14 16 12 13 13 15 14 15 16 17 15 14 15 16 17 17 18 17 18 19 18 17 19 23 22 21
27 27 28 28 28 28 28 28 27 27 26 25 25 25 25 17 8 7 14 13 10 11 8 10 13 14 14 16 15 13 12 14 14 16 17 17 18 18 16 16 16 19 21 20 20
27 28 28 29 29 29 29 28 27 27 26 25 24 24 18 16 12 18 17 16 12 9 9 9 12 14 17 19 18 15 17 21 17 14 15 16 15 16 15 17 20 21 20 18 17
28 29 29 30 30 30 29 28 27 26 25 24 23 23 18 19 18 16 19 17 11 11 9 9 10 12 15 17 16 14 21 20 12 10 13 13 14 15 15 18 19 19 18 17 16
28 29 30 31 31 31 29 28 27 26 24 23 22 19 20 10 15 25 25 20 18 13 12 10 9 14 20 19 17 21 18 18 13 11 10 12 16 12 15 16 17 16 16 16 14
29 29 30 31 31 31 30 28 27 25 23 21 19 18 22 21 26 30 24 25 19 14 14 14 6 16 18 20 20 17 15 16 19 20 15 11 10 12 15 15 15 15 16 15 13
30 31 31 31 31 31 30 28 25 20 18 17 18 18 24 23 21 22 16 19 16 15 15 12 11 17 17 17 16 14 15 17 19 21 16 11 14 12 15 13 14 15 15 14 12
32 32 32 32 32 31 28 23 17 15 16 17 19 20 22 18 17 16 10 7 12 17 10 13 16 12 14 16 13 18 18 20 22 24 17 11 12 16 14 13 13 15 14 13 11
33 33 33 33 32 31 23 17 19 20 18 18 17 18 19 20 17 13 11 5 9 14 13 13 8 9 14 13 15 17 18 23 24 18 14 13 14 17 13 14 13 14 14 13 11
34 33 34 33 32 27 17 16 18 20 25 26 27 28 26 21 20 18 8 9 12 16 15 14 9 13 15 18 17 18 22 24 20 18 14 12 15 17 14 12 13 14 14 14 11
34 34 34 34 29 19 19 15 21 20 24 25 20 22 23 13 18 21 11 10 15 18 17 15 15 17 18 21 20 19 21 22 26 15 14 11 14 15 14 11 11 14 15 14 12
34 34 34 33 20 24 19 18 24 12 22 22 20 20 14 14 19 14 14 14 17 21 17 20 19 19 22 25 16 23 13 24 20 12 11 14 13 6 8 11 11 12 15 17 13
34 34 33 29 26 20 16 21 14 16 21 18 16 15 14 13 14 15 16 19 22 18 15 14 12 10 20 15 14 21 21 21 14 11 13 14 15 21 13 7 13 13 15 16 14
35 34 32 22 21 19 20 19 12 16 19 17 14 14 14 19 16 12 14 16 18 20 17 18 17 20 15 21 19 21 19 17 15 13 16 17 8 7 12 5 9 11 14 16 14
36 35 31 19 19 12 16 11 15 16 18 17 18 14 17 18 20 15 13 14 14 13 15 19 25 23 20 24 14 13 13 18 18 20 18 16 13 10 16 9 8 8 8 11 12
37 35 23 17 18 21 14 12 14 15 17 19 19 15 19 18 22 19 15 16 21 13 14 15 19 16 12 13 18 14 12 13 21 18 17 20 12 25 13 10 8 7 7 6 9
35 27 22 18 4 13 10 10 12 13 16 20 15 15 16 18 18 20 23 24 20 13 14 13 19 18 16 13 14 15 13 14 12 16 17 18 25 19 6 5 6 5 6 8 9
30 24 19 17 2 12 12 11 15 15 18 17 13 14 15 16 18 17 19 24 25 19 21 17 18 19 18 15 17 19 9 16 16 16 17 18 27 29 24 5 7 6 9 8 8
23 19 20 12 11 12 10 13 20 24 22 17 18 18 17 17 19 20 20 20 18 21 23 21 17 17 19 18 19 12 11 15 11 13 16 22 27 26 23 4 5 5 13 11 8
20 14 15 12 12 16 12 16 19 22 22 22 18 19 18 18 21 23 26 24 16 11 14 23 14 17 19 19 18 15 10 8 11 12 16 22 28 21 24 15 4 5 11 12 9
21 16 15 15 11 11 18 16 20 24 24 18 18 19 22 22 19 23 25 33 16 21 16 17 18 16 19 18 13 14 13 10 10 12 13 24 26 23 19 14 10 12 8 6 8
18 14 15 16 15 14 17 19 21 22 21 19 20 18 17 21 25 20 21 22 34 31 26 17 19 16 16 18 14 13 11 9 14 17 19 27 24 23 22 14 10 10 11 7 7
17 16 16 16 18 21 21 20 25 22 21 17 16 15 19 17 16 17 21 17 15 21 22 23 23 22 21 21 17 11 9 11 14 14 18 24 26 24 26 10 9 6 8 9 8
18 18 18 19 19 21 20 19 28 22 21 23 20 21 19 16 18 17 15 17 15 17 17 22 21 17 20 18 12 12 13 13 17 13 18 24 27 24 20 12 8 5 5 5 7
18 19 18 20 19 18 19 22 27 22 25 25 21 19 13 10 6 5 4 5 10 12 15 15 16 15 14 13 14 19 15 13 19 18 21 25 25 29 24 12 3 5 5 6 5
Wind_Direction
315 312 309 306 301 298 294 290 285 283 282 278 276 278 276 277 271 282 246 247 340 351 321 352 297 321 19 79 71 64 123 131 119 71 91 90 91 73 102 70 83 75 66 91 105
317 313 311 309 305 300 296 291 288 285 283 280 275 275 277 280 272 254 252 247 294 302 310 320 5 322 60 73 61 87 143 121 103 102 96 100 93 85 75 81 76 51 50 88 103
320 317 313 309 307 302 297 293 290 287 284 281 278 277 275 278 284 306 289 288 262 279 296 316 331 18 49 43 44 82 161 102 122 119 112 96 92 81 73 80 80 77 74 91 103
319 317 315 312 308 305 299 294 289 287 286 283 279 277 273 294 306 324 291 300 311 282 336 348 6 10 25 279 25 101 128 62 123 82 99 92 83 67 95 78 95 87 91 89 107
321 317 313 312 310 306 300 294 290 286 284 283 283 284 297 289 242 277 294 286 290 310 323 347 355 360 316 283 271 19 270 316 316 81 96 87 98 76 108 91 83 84 90 92 106
319 318 316 311 310 306 301 295 290 287 285 284 285 286 294 282 281 286 278 279 302 299 311 334 0 12 335 282 293 229 276 276 347 73 71 76 71 105 109 87 91 89 97 93 115
313 313 313 312 311 308 300 295 291 288 287 288 289 295 290 283 289 265 258 268 277 287 299 321 359 323 287 270 314 300 289 292 28 62 77 69 28 92 81 96 102 96 96 108 117
310 310 311 311 309 307 300 292 286 286 289 295 300 298 283 282 263 257 263 260 272 280 290 297 57 297 276 255 293 306 328 318 343 330 352 86 57 93 94 104 108 105 98 105 126
312 310 310 309 308 306 298 290 290 298 304 306 302 294 278 276 275 265 267 263 272 280 282 295 299 280 283 303 307 321 323 320 301 347 348 40 19 82 102 101 114 123 125 115 114
313 311 309 308 307 305 295 298 312 319 311 306 295 291 280 281 288 275 277 279 277 273 286 277 274 289 296 310 303 295 308 297 297 306 339 48 41 346 108 113 124 135 135 138 138
313 311 309 308 306 305 308 318 304 300 297 295 300 282 278 281 300 276 271 274 280 271 261 274 277 268 292 302 305 309 305 291 290 345 9 9 20 325 123 127 128 146 150 150 156
311 310 309 308 304 304 326 317 310 301 289 282 276 269 269 283 278 266 267 263 264 256 261 270 249 272 286 286 293 295 291 284 320 347 13 9 3 335 76 125 142 150 163 165 164
308 308 308 308 305 330 314 323 308 298 293 285 286 275 269 287 275 256 254 256 262 251 257 259 269 271 278 270 278 290 296 309 296 9 349 7 357 358 26 121 125 158 175 174 167
307 309 310 307 322 310 298 319 304 323 297 287 284 275 270 277 271 272 253 253 260 250 256 262 269 266 261 258 290 271 344 304 325 4 0 341 0 60 37 168 131 135 169 183 178
303 306 307 308 298 307 309 305 325 318 285 295 288 288 267 263 281 264 257 248 249 253 256 264 276 261 265 275 298 281 314 315 356 6 11 359 359 326 355 145 163 146 162 160 159
298 301 303 320 315 297 289 305 329 300 284 291 293 277 254 255 275 275 259 250 253 248 257 257 266 261 263 271 288 297 308 326 328 337 339 344 28 63 2 139 125 121 139 156 126
296 294 296 320 309 314 300 321 303 290 297 293 279 273 255 253 258 263 251 233 243 239 253 259 251 253 268 268 302 319 314 301 304 309 326 327 6 225 326 58 109 109 76 99 90
296 291 312 316 296 268 291 300 294 293 289 292 283 270 258 254 254 257 250 236 244 257 251 251 249 255 282 292 285 303 309 311 299 310 325 296 10 321 26 56 50 25 4 45 56
298 305 306 307 303 275 283 291 292 289 295 292 282 267 263 251 259 252 247 244 244 241 251 247 250 255 266 295 304 304 308 318 322 315 321 317 289 260 87 88 42 66 104 105 54
300 302 311 297 328 272 276 278 277 279 290 297 278 275 256 251 252 250 247 247 243 240 242 247 250 250 267 293 292 289 321 312 312 313 322 326 295 295 337 58 45 73 118 104 61
309 305 302 287 271 278 275 273 270 265 277 278 270 268 259 259 254 250 251 255 235 233 236 243 258 261 272 290 294 308 303 316 333 332 331 321 292 323 344 69 75 44 121 117 102
302 307 293 289 285 277 281 270 268 262 268 264 265 259 260 267 260 251 243 240 238 218 220 234 258 261 271 283 296 297 320 332 327 336 332 308 287 326 334 360 51 68 125 129 109
294 291 282 286 297 295 272 270 264 254 254 258 259 270 269 259 258 249 245 219 243 233 221 224 251 262 275 283 309 313 319 333 350 346 338 295 286 318 305 357 322 94 71 72 46
292 290 285 280 288 290 280 270 256 249 246 251 258 278 283 257 242 258 253 243 217 216 222 224 248 260 274 289 300 302 322 336 323 318 314 261 256 265 280 307 69 36 39 58 53
290 285 282 281 277 274 265 263 246 241 241 259 263 284 285 255 266 258 244 238 234 227 227 234 251 262 275 284 292 310 314 319 316 330 313 293 262 252 286 3 6 21 65 66 63
283 280 280 274 274 265 262 263 239 252 245 249 261 278 286 255 258 261 246 239 241 237 239 245 257 271 280 288 301 310 310 312 306 330 321 296 289 312 326 348 15 52 71 67 68
285 279 280 268 271 271 267 260 240 250 244 246 267 271 269 258 290 345 295 270 252 254 255 254 255 266 280 291 305 301 304 310 305 314 312 306 311 310 321 337 35 98 117 109 101